Location: Dzierzno
(50.6159°N, 19.2852°E)
Time: 07:34:19
(UTC+00:00)

Meteor 2-3 Rocket - Pass Details

Date: 18 November 2025
Orbit: 841 x 884 km, 81.2° (Epoch: 06 December)

Event Time Altitude Azimuth Distance (km) Brightness Sun altitude
Rises 16:46:09 0° 350° (N) 3,469 6.9 -17.7°
Reaches altitude 10° 16:48:41 10° 355° (N) 2,521 6.1 -18.1°
Maximum altitude 16:54:16 52° 72° (ENE) 1,056 3.8 -19.0°
Drops below altitude 10° 16:59:45 10° 149° (SSE) 2,475 5.9 -19.8°
Sets 17:02:12 0° 154° (SSE) 3,401 6.7 -20.2°
